Regional Weather Roundup
Issued by NWS Cleveland, OH

Home | Current Version | Previous Version | Graphics & Text | Print | Product List | Glossary On
Versions: 1 2 3 4 5 6 7 8 9 10 11 12 13 14 15 16 17 18 19 20 21 22 23 24 25 26 27 28 29 30 31 32 33 34 35 36 37 38 39 40 41 42 43 44 45 46 47 48 49 50
000
ASUS41 KCLE 062200
RWRCLE
OHIO REGIONAL WEATHER ROUNDUP
NATIONAL WEATHER SERVICE WILMINGTON, OH
500 PM EST FRI MAR 06 2015

NOTE: "FAIR" INDICATES FEW OR NO CLOUDS BELOW 12,000 FEET WITH NO
SIGNIFICANT WEATHER AND/OR OBSTRUCTIONS TO VISIBILITY.

OHZ001>008-015>018-024>027-034-035-043-044-062300-
   NORTHWEST OHIO

CITY           SKY/WX    TMP DP  RH WIND       PRES   REMARKS
DEFIANCE       MOSUNNY   24  10  55 SW15      30.31F WCI  11
FINDLAY        SUNNY     23  12  62 S15       30.33F WCI  10
TOLEDO EXPRESS SUNNY     22   9  57 SW10      30.31F WCI  11
TOLEDO EXEC    SUNNY     23  11  60 SW14      30.33F WCI  11
LIMA           SUNNY     25  11  55 S10       30.32F WCI  15
$$

OHZ009>014-019>023-028>033-038-089-062300-
   NORTHEAST OHIO

CITY           SKY/WX    TMP DP  RH WIND       PRES   REMARKS
CLE-HOPKINS    PTSUNNY   24   7  48 SW14      30.35F WCI  12
CLE-LAKEFRONT  PTSUNNY   25   7  46 S15G23    30.33F WCI  13
CUY CO. ARPT   PTSUNNY   25   9  50 SW14      30.33F WCI  13
LORAIN-ELYRIA  SUNNY     22   8  55 SW18      30.34F WCI   7
ASHTABULA      SUNNY     23   3  42 SW12      30.32F WCI  12
AKRON-CANTON   PTSUNNY   22   7  52 SW10      30.33F WCI  11
WOOSTER        NOT AVBL
MANSFIELD      MOSUNNY   22   8  55 S14       30.31F WCI   9
YOUNGSTOWN     PTSUNNY   22   4  46 S10       30.32F WCI  11
$$

OHZ042-051>053-060>062-070>072-077>081-062300-
  SOUTHWEST OHIO

CITY           SKY/WX    TMP DP  RH WIND       PRES   REMARKS
CINC-COVINGTON MOSUNNY   27   9  46 S10G17    30.40F WCI  17
CINC-LUNKEN    MOSUNNY   27  10  49 SW13      30.43F WCI  16
HAMILTON       SUNNY     30  11  45 S8        30.41F WCI  22
DAYTON         NOT AVBL
WRIGHT-PAT AFB NOT AVBL
DAYTON GENERAL SUNNY     26  10  50 SW12      30.37F WCI  16
WILMINGTON     SUNNY     22   9  57 S12       30.38F WCI  10
$$

OHZ036-037-039>041-045>050-054>059-063>069-073>076-082>088-062300-
  CENTRAL AND SOUTHEAST OHIO

CITY           SKY/WX    TMP DP  RH WIND       PRES   REMARKS
COLUMBUS       MOSUNNY   22   4  46 SW12      30.39F WCI  10
OSU AIRPORT    SUNNY     23   7  50 S13       30.38F WCI  11
BOLTON FIELD   SUNNY     23   9  54 SW10      30.39F WCI  12
RICKENBACK AFB NOT AVBL
NEWARK         SUNNY     22   6  50 SW10      30.38F WCI  11
MARION         FAIR      21   9  59 S14       30.35F WCI   8
LANCASTER      SUNNY     23   7  50 SW10      30.40F WCI  12
ZANESVILLE     SUNNY     24   8  50 S7        30.38F WCI  16
NEW PHILLY     SUNNY     26   5  40 SW6       30.38F WCI  19
$$



USA.gov is the U.S. government's official web portal to all federal, state and local government web resources and services.